Regional Weather Roundup
Issued by NWS

Home | Current Version | Previous Version | Graphics & Text | Print | Product List | Glossary On
Versions: 1 2 3 4 5 6 7 8 9 10 11 12 13 14 15 16 17 18 19 20 21 22 23 24 25 26 27 28 29 30 31 32 33 34 35 36 37 38 39 40 41 42 43 44 45 46 47 48 49 50
000
ASUS44 KMEG 210810
RWRTN
TENNESSEE HOURLY STATE WEATHER ROUNDUP
NATIONAL WEATHER SERVICE MEMPHIS TN
300 AM CDT SAT OCT 21 2017

TNZ002-004-019-021-049-052-054-088>092-210900-
WEST TENNESSEE

CITY           SKY/WX    TMP DP  RH WIND       PRES   REMARKS
MEMPHIS INTL   PTCLDY    63  55  75 S6        30.09S
NWS MEMPHIS      N/A     60 N/A N/A MISG        N/A
JACKSON        MOCLDY    53  51  93 SE3       30.12F
DYERSBURG      CLOUDY    60  52  74 SE5       30.12S
SOMERVILLE     CLEAR     61  54  77 SE5       30.09F
COVINGTON      PTCLDY    57  54  88 CALM      30.10S
UNION CITY     PTCLDY    57  50  77 S5        30.11S
BOLIVAR        CLEAR     55  52  88 CALM      30.11F
HUNTINGDON     CLEAR     55  48  76 CALM      30.12S
LEXINGTON      CLEAR     48  46  93 CALM      30.14F
SELMER         PTCLDY    59  48  67 SE8       30.13S
SAVANNAH       PTCLDY    57  48  72 S7        30.13S
$$

TNZ008-025-027-028-033-062-065-066-210900-
NORTH MIDDLE TENNESSEE

CITY           SKY/WX    TMP DP  RH WIND       PRES   REMARKS
NASHVILLE      MOCLDY    51  47  86 S5        30.18S
PORTLAND       CLEAR     52  50  93 CALM      30.17S
CLARKSVILLE    PTCLDY    50  48  93 SE6       30.16S
SMYRNA         CLOUDY    46  45  96 CALM      30.20R
COOKEVILLE     CLEAR     45  45 100 CALM      30.19S
GALLATIN       PTCLDY    48  46  93 CALM      30.21S
CROSSVILLE     CLOUDY    50  47  89 CALM      30.24S
$$

TNZ061-075-076-078-094-096-097-210900-
SOUTH MIDDLE TENNESSEE

CITY           SKY/WX    TMP DP  RH WIND       PRES   REMARKS
FAYETTEVILLE   CLEAR     52  48  87 CALM      30.18S
TULLAHOMA      CLEAR     50  45  81 CALM      30.20F
WINCHESTER     CLEAR     48  46  93 CALM        N/A
COLUMBIA       CLEAR     46  45  93 CALM      30.16S
SHELBYVILLE    CLEAR     50  48  93 CALM      30.18S
$$

TNZ017-018-042-046-047-210900-
NORTHEAST TENNESSEE

CITY           SKY/WX    TMP DP  RH WIND       PRES   REMARKS
TRI CITIES     PTCLDY    44  44 100 CALM      30.26S
ELIZABETHTON   CLEAR     50  45  81 E5        30.27S
$$

TNZ012-013-036-069-073-074-210900-
CENTRAL EAST TENNESSEE

CITY           SKY/WX    TMP DP  RH WIND       PRES   REMARKS
KNOXVILLE      CLOUDY    52  51  97 CALM      30.22S
OAK RIDGE      CLEAR     49  49 100 CALM      30.25R
DOWNTOWN KNOXV MOCLDY    50  50 100 CALM      30.24S FOG
GATLINBURG     CLEAR     46  46 100 CALM      30.23S
MORRISTOWN     CLEAR     50  46  87 CALM      30.24R
JACKSBORO      CLEAR     46  46 100 CALM      30.27S
$$

TNZ083-085-099-210900-
SOUTHEAST TENNESSEE

CITY           SKY/WX    TMP DP  RH WIND       PRES   REMARKS
CHATTANOOGA    PTCLDY    51  49  92 W3        30.22F
DAYTON         FOG       48  48 100 N3        30.21F VSB 3/4
$$

SKY/WX REPORTED AS FAIR MEANS FEW OR NO CLOUDS BELOW
12 THOUSAND FEET.





USA.gov is the U.S. government's official web portal to all federal, state and local government web resources and services.